Location: Cahoon Acres
(40.8736°N, 111.8994°W)
Time: 09:56:15
(UTC+00:00)

SR - Pass Details

Date: 13 June 2020
Orbit: 583 x 872 km, 66.7° (Epoch: 03 July)

Event Time Altitude Azimuth Distance (km) Brightness Sun altitude
Rises 19:27:50 0° 220° (SW) 3,263 ? 72.4°
Reaches altitude 10° 19:30:23 10° 225° (SW) 2,293 ? 72.4°
Maximum altitude 19:35:30 54° 303° (WNW) 868 ? 72.3°
Drops below altitude 10° 19:40:13 10° 21° (NNE) 2,117 ? 72.2°
Sets 19:42:30 0° 26° (NNE) 2,991 ? 72.1°
